Weather in Parnaya

Russia / Krasnoyarsk Krai     55°17′18″N   89°13′57″E
temp.,
°C
wind,
m/s
gust,
m/s
humid.,
%
clouds,
%
prec.,
mm/h
press.,
hPa
HPBL,
m
26 february, fri
fri2601:00−22ssw299384 0.1 1026499
04:00−22ssw2129299 0.1 10251161
07:00−24sw2129093 0.1 10271243
10:00−24wsw6137899 0.1 10281685
13:00−23wsw6137499 0.1 10311677
16:00−23wsw61275100 0.0 10321458
19:00−24wsw21287100 0.1 10331310
22:00−24wsw21285100 0.0 10351089
27 february, sat
sat2701:00−26sw2885100 0.0 1036315
04:00−26ssw2784100 0.0 1036314
07:00−26s2486100 0.0 1036125
10:00−24sw31077100 0.0 1036771
13:00−20wsw4972100 0.0 10361019
16:00−20wsw4973100 0.0 10361074
19:00−23wsw2785100 0.0 1037346
22:00−24sw21087100 0.0 1038528
28 february, sun
sun2801:00−25ssw1288100 0.0 103828
04:00−25s2289100 0.0 103937
07:00−25s2290100 0.0 104061
10:00−23s2585100 0.0 1040308
13:00−16w267186 0.0 1038938
16:00−15wnw257287 0.0 1036963
19:00−21se119290 0.0 103520
22:00−21s239198 0.0 103429
1 march, mon
mon101:00−20sse239198 0.0 103176
04:00−18sse2494100 0.0 1029129
07:00−18sse3596100 0.1 1025161
10:00−16sse3593100 0.1 1022219
13:00−13sse3593100 0.4 1018265
16:00−11se2492100 0.4 1016229
19:00−12se2396100 1.1 1014109
22:00−11se3496100 0.8 1013148
2 march, tue
tue201:00−8s2991100 1.0 1011332
04:00−5sw41483100 0.0 1010632
07:00−7ssw31485100 0.0 1009546
10:00−3wsw51377100 0.0 1007902
13:00−1wsw71276100 0.0 10081106
16:00−3wsw7127885 0.1 10101022
19:00−6wnw389483 0.5 1012439
22:00−10w239495 0.1 101380